De Queen, AR

8:37 AM CDT on July 29, 2016 (GMT -0500)
Helms Sevier County

Weather History for KDEQ - September, 2012

Change the Weather History Date:

Sunday, September 30, 2012

  Actual Average Record
Temperature  
Mean Temperature 65 °F 68 °F  
Max Temperature 69 °F 81 °F 103 °F (1953)
Min Temperature 60 °F 56 °F 40 °F (1992)
Degree Days  
Heating Degree Days 0 1  
Month to date heating degree days 1 7  
Since 1 July heating degree days 1 9  
Cooling Degree Days 0 4  
Month to date cooling degree days 338 273  
Year to date cooling degree days 2090 1865  
Growing Degree Days 14 (Base 50)    
Moisture  
Dew Point 59 °F    
Average Humidity 79    
Maximum Humidity 97    
Minimum Humidity 61    
Precipitation  
Precipitation 0.32 in 0.10 in 1.90 in (1903)
Month to date precipitation 1.58 3.61  
Year to date precipitation 22.36 35.20  
Snow  
Snow 0.00 in - - ()
Month to date snowfall 0.0  
Since 1 July snowfall 0.0  
Since 1 September snowfall 0.0  
Snow Depth 0.00 in    
Sea Level Pressure  
Sea Level Pressure 29.82 in    
Wind  
Wind Speed 5 mph (NNE)    
Max Wind Speed 12 mph    
Max Gust Speed 17 mph    
Visibility 7 miles    
Events Rain    
T = Trace of Precipitation, MM = Missing Value Source: NWS Daily Summary

Daily Weather History Graph

Daily Weather History Graph

Search for Another Location

Airport or City:

Trip Planner

Search our weather history database for the weather conditions in past years. The results will help you decide how hot, cold, wet, or windy it might be!

Date:

Astronomy

Sep. 30, 2012 Rise Set
Actual Time 7:11 AM CDT 7:02 PM CDT
Civil Twilight 6:46 AM CDT 7:27 PM CDT
Nautical Twilight 6:17 AM CDT 7:56 PM CDT
Astronomical Twilight 5:48 AM CDT 8:25 PM CDT
Moon 7:11 PM CDT (9/30) 7:39 AM CDT (9/30)
Length of Visible Light 12h 40m
Length of Day
11h 50m
Full, 100% of the Moon is Illuminated
Sep 30
Full
Oct 8
Last Quarter
Oct 15
New
Oct 21
First Quarter
Oct 29
Full

Hourly Weather History & Observations

Time (CDT) Temp. Dew Point Humidity Pressure Visibility Wind Dir Wind Speed Gust Speed Precip Events Conditions
12:53 AM 66.0 °F 64.0 °F 93% 29.89 in 4.0 mi ENE 6.9 mph - 0.02 in Rain Light Rain
1:03 AM 66.2 °F 64.4 °F 94% 29.90 in 5.0 mi ENE 6.9 mph - 0.01 in Rain Light Rain
1:35 AM 64.4 °F 62.6 °F 94% 29.89 in 7.0 mi ENE 8.1 mph - 0.01 in Rain Light Rain
1:53 AM 64.0 °F 61.0 °F 90% 29.88 in 8.0 mi ENE 6.9 mph - 0.01 in Rain Light Rain
2:53 AM 63.0 °F 60.1 °F 90% 29.86 in 9.0 mi NE 5.8 mph - 0.00 in   Overcast
3:53 AM 62.1 °F 59.0 °F 90% 29.84 in 7.0 mi NE 9.2 mph - 0.00 in Rain Light Rain
4:53 AM 62.1 °F 57.9 °F 86% 29.83 in 5.0 mi NE 6.9 mph - 0.01 in Rain Light Rain
5:53 AM 61.0 °F 59.0 °F 93% 29.83 in 3.0 mi NE 6.9 mph - 0.01 in Rain Light Rain
6:14 AM 60.8 °F 59.0 °F 94% 29.84 in 2.0 mi NE 6.9 mph - 0.03 in Rain Rain
6:53 AM 61.0 °F 59.0 °F 93% 29.83 in 2.5 mi NE 10.4 mph - 0.11 in Rain Light Rain
7:02 AM 60.8 °F 59.0 °F 94% 29.83 in 3.0 mi NE 9.2 mph - 0.00 in Rain Light Rain
7:53 AM 61.0 °F 59.0 °F 93% 29.83 in 6.0 mi ENE 5.8 mph - 0.00 in   Overcast
8:53 AM 63.0 °F 59.0 °F 87% 29.83 in 7.0 mi NNE 4.6 mph - N/A   Overcast
9:53 AM 64.0 °F 59.0 °F 84% 29.83 in 8.0 mi NNE 3.5 mph - N/A   Overcast
10:53 AM 66.0 °F 59.0 °F 78% 29.84 in 10.0 mi NE 8.1 mph - N/A   Overcast
11:53 AM 66.0 °F 57.9 °F 75% 29.83 in 10.0 mi North 6.9 mph - N/A   Overcast
12:53 PM 66.9 °F 59.0 °F 76% 29.82 in 10.0 mi North 8.1 mph - N/A   Overcast
1:53 PM 68.0 °F 59.0 °F 73% 29.80 in 9.0 mi NNE 3.5 mph - N/A   Overcast
2:53 PM 69.1 °F 57.9 °F 68% 29.79 in 10.0 mi North 8.1 mph - N/A   Overcast
3:53 PM 69.1 °F 57.9 °F 68% 29.78 in 10.0 mi Variable 6.9 mph - N/A   Overcast
4:53 PM 69.1 °F 55.0 °F 61% 29.78 in 10.0 mi Variable 6.9 mph - 0.00 in   Overcast
5:53 PM 66.9 °F 57.0 °F 70% 29.79 in 8.0 mi NNW 4.6 mph - 0.00 in Rain Light Rain
6:53 PM 64.0 °F 60.1 °F 87% 29.79 in 9.0 mi NNW 5.8 mph - 0.00 in   Overcast
7:25 PM 62.6 °F 60.8 °F 94% 29.80 in 2.5 mi Variable 4.6 mph - 0.06 in Rain Rain
7:36 PM 62.6 °F 60.8 °F 94% 29.80 in 3.0 mi NNW 8.1 mph - 0.09 in Rain Rain
7:53 PM 62.1 °F 60.1 °F 93% 29.79 in 3.0 mi NNW 5.8 mph - 0.13 in Rain Rain
8:53 PM 61.0 °F 59.0 °F 93% 29.80 in 6.0 mi NNW 3.5 mph - 0.06 in Rain Light Rain
9:53 PM 61.0 °F 57.9 °F 90% 29.80 in 9.0 mi Calm Calm - 0.00 in   Overcast
10:53 PM 60.1 °F 59.0 °F 96% 29.80 in 5.0 mi Calm Calm - N/A   Overcast
11:53 PM 61.0 °F 59.0 °F 93% 29.80 in 7.0 mi Calm Calm - 0.00 in Rain Light Rain